Wind_Speed
37 38 41 42 41 38 35 32 32 28 20 15 15 13 14 10 9 9 9 13 12 11 7 6 7 7 10 11 9 6 6 4 3 4 5 7 8 7 9 12 19 21 21 25 24 21 20 20 29 37 43 41 35 36
33 32 32 36 37 36 34 34 34 26 21 14 16 13 13 10 7 9 7 10 12 11 8 7 7 6 9 9 8 5 4 4 3 4 4 4 5 8 8 8 12 16 20 24 26 27 23 25 25 22 25 33 37 37
31 32 29 30 34 35 36 38 35 34 23 15 19 15 14 12 11 10 9 10 13 13 10 10 7 6 8 6 4 5 4 4 4 4 5 5 5 6 6 8 9 10 11 15 19 25 28 30 31 29 30 29 29 33
30 29 30 30 31 37 37 40 34 34 25 18 21 18 16 15 13 12 11 11 14 17 12 10 8 5 5 3 3 3 2 2 3 3 4 5 6 7 7 9 10 11 12 13 16 19 22 26 28 28 29 31 35 37
31 30 29 30 31 31 34 37 37 32 26 21 22 20 16 18 15 14 14 13 17 20 14 11 9 5 4 3 2 2 1 1 1 1 2 3 4 5 6 8 8 8 10 12 17 20 26 27 29 31 31 30 31 37
30 29 31 30 32 33 32 33 32 33 33 23 24 20 18 18 19 16 14 14 19 21 16 13 9 6 5 4 3 3 2 3 2 1 1 0 3 3 4 5 6 8 9 10 12 13 17 24 30 32 32 31 32 34
31 29 30 29 30 33 32 31 29 32 31 22 25 21 20 19 17 15 15 16 26 22 17 15 10 7 6 6 5 5 4 4 4 4 4 3 2 1 4 5 6 7 8 9 11 11 13 15 20 28 31 34 35 35
30 30 28 30 31 32 29 31 30 34 27 25 26 22 22 21 16 17 17 18 29 23 20 16 12 9 8 8 7 7 6 5 3 3 3 5 5 5 4 4 4 6 8 9 10 11 11 11 12 14 21 25 29 33
30 29 29 29 30 29 26 30 34 37 26 26 26 23 22 23 20 18 19 19 30 25 21 19 14 11 9 9 8 7 5 3 1 1 3 5 7 7 9 9 7 5 5 7 8 8 8 9 10 11 13 16 19 22
30 30 28 28 26 26 28 27 33 29 24 28 25 24 22 23 23 21 21 21 33 27 24 22 17 12 9 9 9 8 6 4 3 0 3 4 5 7 9 10 12 10 8 7 7 7 7 8 10 12 14 16 16 17
30 27 26 26 23 24 25 28 27 24 25 23 24 25 25 24 23 23 22 23 34 29 25 23 17 13 9 7 8 7 6 5 5 5 4 2 6 8 9 9 11 10 11 9 9 9 9 8 8 9 12 15 17 20
29 26 25 21 23 26 25 30 25 25 22 20 24 25 24 24 24 25 23 20 33 31 26 25 21 17 13 10 9 9 7 7 8 9 10 9 11 11 11 9 13 11 12 13 11 12 14 11 11 12 12 14 17 20
25 24 24 19 20 23 20 21 22 21 16 17 22 22 23 25 24 23 22 14 27 28 26 27 23 19 17 13 11 10 9 9 11 10 11 11 12 13 12 11 12 12 15 18 19 18 19 18 17 16 16 17 18 19
22 19 22 20 16 15 16 17 12 11 15 16 20 20 22 20 18 18 23 21 24 30 29 29 26 22 19 16 14 12 11 10 8 9 12 13 14 15 14 14 13 11 15 19 21 22 21 20 21 21 21 21 21 23
17 13 11 9 7 17 10 18 17 13 12 16 17 18 13 13 15 19 21 25 28 35 31 30 28 25 22 18 16 14 14 13 11 10 12 16 19 21 17 15 14 14 17 20 21 23 19 18 21 25 26 24 25 27
9 6 8 11 16 16 10 10 10 14 15 18 14 13 14 14 16 16 20 22 29 32 31 30 29 27 23 20 17 18 17 18 15 17 19 20 19 18 19 17 18 18 19 21 21 22 25 26 33 34 30 27 29 30
12 6 12 10 9 14 14 14 14 17 14 17 14 15 16 14 13 13 20 24 28 27 27 29 26 24 23 22 20 22 22 20 21 21 21 20 20 20 20 20 20 21 22 23 25 27 28 32 31 27 25 31 30 28
13 20 20 24 16 17 17 20 22 20 23 18 17 17 18 18 15 20 24 24 23 24 25 27 26 24 22 20 19 23 22 21 19 20 22 24 24 25 22 24 24 24 23 23 27 28 28 31 29 32 30 28 26 28
18 15 7 9 12 14 15 17 20 24 20 19 19 19 19 17 17 20 25 25 24 24 25 23 22 18 19 23 23 22 21 20 21 21 21 18 18 20 23 24 25 25 26 26 31 28 33 35 33 31 26 25 28 29
22 15 12 13 14 14 14 15 16 16 17 17 17 16 17 18 18 19 22 26 29 31 29 27 19 21 25 25 24 23 21 21 22 22 20 21 20 23 26 28 29 27 30 27 32 31 33 32 30 25 24 27 27 28
19 18 16 15 13 13 13 11 12 12 11 13 13 15 15 15 15 16 18 20 22 23 23 23 23 27 27 24 22 21 22 25 26 25 25 25 25 25 26 29 31 28 31 32 35 27 26 27 23 24 25 25 27 26
15 16 16 16 15 13 13 14 13 11 12 11 11 13 14 15 15 15 16 17 17 20 22 26 27 26 21 20 18 21 22 22 22 22 23 24 24 19 22 26 35 30 28 33 29 26 24 23 24 24 24 26 25 27
14 15 15 17 17 15 13 15 15 12 12 10 11 12 14 14 14 14 15 16 19 24 26 23 24 19 16 15 17 15 15 18 22 20 18 20 19 19 18 23 25 32 31 34 31 26 24 24 24 23 24 24 24 25
15 15 15 14 14 13 13 15 12 11 9 9 9 12 13 15 15 14 13 16 18 16 21 19 18 20 20 17 15 15 16 18 18 18 21 21 18 18 21 22 23 24 30 32 29 25 24 24 23 22 23 22 22 21
15 14 13 13 13 13 13 13 12 10 8 7 6 6 8 11 12 15 14 18 11 10 15 20 21 19 16 16 17 16 14 14 11 12 14 14 14 17 19 21 23 24 25 26 25 23 22 22 21 20 20 20 19 19
14 13 13 14 13 12 12 9 8 6 5 5 3 4 6 7 9 12 16 11 7 7 8 10 13 14 14 14 12 12 11 13 15 16 16 15 16 17 18 19 19 22 23 22 21 21 21 21 19 18 18 17 16 16
13 13 12 12 13 14 15 15 12 9 7 10 8 9 8 9 10 10 9 8 8 7 5 8 8 8 7 5 7 9 12 15 16 16 17 16 16 16 16 17 19 20 21 20 20 20 20 18 17 16 15 14 13 13
14 13 12 13 15 16 17 13 10 12 10 9 9 6 9 13 13 13 10 11 11 10 8 6 8 8 8 8 10 13 15 14 13 15 17 18 17 16 17 18 19 20 20 20 20 19 18 17 15 14 13 12 11 11
13 11 11 12 14 16 19 15 13 14 11 12 7 4 11 4 12 9 7 8 9 7 7 8 8 9 9 11 13 15 17 15 14 15 17 17 17 16 16 18 18 18 19 18 17 16 15 15 13 12 10 8 7 8
12 12 12 13 12 13 18 19 16 14 12 10 10 8 7 12 11 11 10 9 8 8 9 11 11 10 14 16 18 18 20 18 17 17 19 17 16 17 17 17 17 17 16 15 14 15 14 13 11 10 8 6 4 5
13 12 12 12 13 10 7 8 12 15 15 16 17 15 15 13 11 7 7 9 9 10 12 13 14 15 17 18 22 22 15 13 16 18 17 17 17 16 16 16 17 15 13 13 13 14 14 12 10 9 8 6 5 3
10 9 9 7 7 9 11 12 14 16 16 14 15 16 14 15 19 19 16 15 15 15 17 17 18 17 22 25 16 9 12 16 16 17 16 16 15 15 15 16 16 15 13 12 12 13 13 12 10 10 8 8 8 6
8 8 9 8 8 7 7 7 7 8 9 10 10 11 13 15 17 20 21 20 18 17 18 19 22 17 11 7 7 12 14 14 15 15 15 15 14 13 14 15 16 16 14 13 13 13 12 10 9 9 9 9 9 9
Wind_Direction
273 270 269 269 271 274 275 280 286 288 269 280 290 299 300 298 256 253 251 251 242 235 253 263 254 290 318 329 325 316 308 310 300 264 249 242 246 245 231 225 221 219 223 220 218 224 224 223 227 224 232 234 240 238
282 276 273 269 269 267 265 271 278 274 251 254 274 279 281 282 261 230 255 264 240 217 231 233 242 288 317 319 315 319 294 282 287 276 263 233 233 234 236 235 231 233 234 236 226 227 232 221 225 229 230 232 238 239
290 282 278 275 266 259 262 268 271 266 252 238 258 262 263 258 248 238 250 270 228 208 218 225 245 287 312 308 318 316 292 276 273 261 253 246 241 234 229 227 230 233 232 230 230 234 237 238 235 241 240 235 235 237
289 289 279 273 271 259 260 271 270 270 240 234 247 249 253 250 244 242 251 250 232 207 210 220 234 270 295 266 313 343 321 286 275 263 255 246 244 245 240 237 234 235 238 237 239 241 242 241 241 241 240 239 237 235
296 291 282 276 269 266 266 265 263 261 230 225 235 239 246 244 243 244 256 250 222 205 207 212 218 245 261 227 254 277 4 48 342 306 291 266 255 248 232 227 232 234 244 253 257 255 251 248 245 244 242 240 239 238
294 289 285 278 268 263 271 276 267 262 232 212 226 230 239 237 239 239 245 252 209 203 207 202 211 223 223 213 212 207 192 131 123 139 140 126 231 244 247 243 236 240 250 261 270 274 272 260 256 254 251 247 242 239
293 290 284 280 272 263 268 271 274 252 212 214 227 225 231 230 232 237 242 233 197 204 205 198 203 211 203 206 197 184 156 134 114 105 96 73 57 306 267 277 270 272 276 275 274 279 287 287 268 256 254 252 248 244
290 290 283 278 277 269 272 268 267 238 198 218 227 223 226 223 223 229 228 222 194 201 200 199 201 207 201 204 195 174 163 126 94 73 58 44 33 25 13 342 303 284 283 290 296 293 294 294 296 282 265 261 258 252
293 291 285 283 280 273 273 271 271 218 203 221 225 225 223 222 221 224 224 219 201 200 202 205 203 207 204 203 202 194 185 159 139 65 51 33 24 20 12 9 350 330 304 294 297 304 297 292 293 288 285 276 269 265
293 289 281 283 279 278 273 272 224 201 217 220 222 220 218 220 220 221 221 218 205 203 200 207 203 205 201 206 203 200 210 209 217 158 52 57 31 17 2 0 1 351 325 304 295 303 302 302 292 288 288 283 282 277
292 286 280 279 267 262 272 245 213 213 219 215 221 217 216 217 222 219 222 220 206 204 202 208 202 205 204 212 229 225 234 247 251 255 267 333 347 348 349 350 347 347 348 330 304 292 287 285 291 285 281 281 275 271
291 282 274 267 256 258 258 242 224 223 207 211 222 219 217 218 220 217 220 222 205 204 203 207 207 208 214 216 230 239 248 262 271 266 262 280 308 322 330 327 347 348 346 344 324 292 280 277 278 278 278 277 273 271
283 273 261 271 280 265 268 243 222 204 192 212 224 220 219 223 223 217 214 218 210 206 206 211 211 212 220 223 228 239 252 263 272 272 270 278 296 308 315 317 326 338 346 341 336 319 297 286 282 284 284 281 282 272
269 272 260 277 280 251 234 193 179 187 201 214 219 219 225 224 220 214 216 215 213 207 209 212 213 215 218 222 232 242 255 268 271 274 277 281 294 297 302 303 304 313 334 333 334 325 308 291 282 286 289 288 287 284
260 268 258 242 247 190 206 204 185 181 205 209 207 212 196 207 215 221 224 226 218 203 207 209 210 213 217 219 234 247 256 265 274 278 284 292 289 294 290 296 298 302 318 320 323 329 319 314 298 290 286 285 285 283
270 286 253 205 213 185 177 178 192 190 206 216 191 202 216 225 226 226 220 217 200 198 205 208 212 218 222 229 240 253 261 271 285 290 295 300 292 288 289 301 304 310 311 317 316 327 322 311 324 294 283 284 283 284
238 171 199 206 261 196 206 203 209 195 206 217 219 223 223 226 223 203 190 190 189 199 206 215 220 226 231 235 243 253 258 273 282 289 297 299 301 289 295 304 301 307 313 313 309 314 314 323 322 325 307 292 286 288
190 211 214 212 197 187 188 209 214 218 229 215 229 231 227 217 216 199 193 196 196 204 213 219 222 228 232 237 246 250 260 268 274 289 291 291 298 287 289 302 301 303 304 314 317 312 312 316 310 316 308 296 293 294
199 168 168 200 205 212 214 213 213 219 232 231 233 229 221 217 219 211 204 208 212 218 220 224 226 227 241 242 246 252 257 268 270 286 291 298 310 300 289 294 295 298 300 304 323 311 314 315 315 313 305 298 297 295
183 195 201 205 209 211 210 212 213 217 217 220 219 215 215 213 210 213 214 217 218 224 226 229 227 234 241 246 252 258 258 268 277 282 290 300 304 308 305 299 293 287 295 303 324 314 308 309 312 309 303 300 297 298
187 194 212 214 204 203 202 200 202 204 204 207 205 210 211 210 208 210 216 223 230 233 234 238 236 238 241 247 255 258 258 266 277 281 286 287 290 295 293 293 291 291 296 309 313 311 312 310 311 309 308 305 307 307
199 211 215 213 214 209 207 206 198 195 201 200 201 207 208 213 216 222 226 232 231 226 228 226 230 238 240 244 258 261 257 271 278 286 289 296 292 283 314 279 275 281 293 306 320 328 319 316 316 315 310 311 310 311
208 213 210 211 213 211 211 213 215 216 212 208 215 215 213 217 222 228 242 244 231 230 223 226 231 237 239 249 256 265 271 277 277 273 287 301 298 283 296 307 290 305 306 308 322 322 318 319 317 313 312 313 312 314
213 208 205 204 206 207 211 207 211 216 218 212 207 215 224 226 230 230 236 238 241 237 218 220 225 226 238 260 271 266 261 280 283 284 291 294 294 291 286 289 292 298 300 310 315 314 315 316 314 311 313 314 317 318
202 200 197 199 201 202 201 199 201 199 190 186 201 219 229 241 236 218 233 239 229 220 223 223 230 235 246 255 256 257 269 291 303 306 306 300 297 296 300 303 303 305 306 308 308 310 312 312 310 310 315 318 322 326
195 192 192 196 195 193 183 167 160 163 179 177 172 216 223 203 220 205 220 211 207 221 230 237 241 241 242 252 258 268 279 293 302 303 308 308 302 303 303 304 308 309 308 307 307 308 309 310 309 313 318 324 327 326
185 187 191 190 187 176 165 154 165 176 168 165 167 164 155 164 176 188 179 182 196 202 229 211 201 201 199 241 287 298 302 301 302 305 307 309 307 308 312 312 310 313 311 307 305 305 310 313 311 316 321 324 327 329
181 181 178 176 172 168 164 156 147 151 158 159 179 202 210 235 234 217 226 212 210 214 214 219 214 233 266 274 292 301 302 301 307 313 315 312 308 309 310 305 307 313 312 307 306 309 315 317 312 316 321 324 331 338
176 170 175 177 177 177 174 168 166 170 171 168 198 155 185 218 144 172 154 167 186 198 232 255 262 267 266 281 299 310 314 304 303 308 311 313 307 306 307 308 308 309 309 311 314 316 314 314 309 314 315 317 332 345
155 158 161 168 177 186 192 191 186 191 199 197 212 218 228 199 165 169 185 198 214 234 255 273 285 283 291 281 303 299 312 299 299 305 312 314 311 309 304 302 303 304 308 311 314 315 307 306 306 310 305 299 319 345
171 175 180 186 198 207 212 215 214 220 232 238 241 242 239 240 237 228 225 236 254 270 282 276 279 288 293 300 300 300 296 294 301 307 311 311 307 301 298 297 299 299 303 307 308 305 302 304 303 299 293 276 275 296
167 173 182 187 184 186 191 194 199 208 215 214 216 228 245 252 248 250 253 260 270 278 278 274 283 292 298 300 286 274 291 299 306 310 308 303 299 296 297 295 294 290 291 296 298 300 301 301 301 294 287 272 256 261
185 188 191 198 198 188 191 203 214 219 226 233 240 246 251 253 252 245 250 260 271 274 280 283 290 289 267 277 298 297 297 304 305 304 304 302 298 297 295 293 293 292 289 289 293 294 292 293 301 292 280 274 259 251
Height
5764 5764 5764 5766 5767 5767 5766 5766 5766 5765 5764 5764 5762 5760 5760 5760 5758 5758 5758 5758 5759 5760 5761 5761 5762 5761 5760 5759 5757 5756 5756 5754 5753 5753 5753 5753 5753 5754 5756 5757 5759 5761 5763 5765 5768 5770 5774 5776 5780 5785 5787 5790 5794 5798
5753 5753 5752 5753 5754 5755 5755 5756 5756 5755 5754 5755 5755 5754 5755 5755 5755 5754 5754 5755 5755 5757 5758 5759 5759 5759 5758 5756 5755 5754 5753 5752 5751 5751 5751 5751 5751 5752 5753 5754 5755 5757 5759 5760 5763 5763 5767 5770 5773 5777 5779 5782 5785 5790
5743 5742 5741 5741 5741 5743 5744 5744 5745 5746 5745 5746 5748 5747 5748 5749 5750 5750 5750 5750 5751 5753 5755 5757 5757 5757 5756 5754 5753 5752 5751 5750 5749 5749 5749 5749 5750 5750 5750 5751 5752 5753 5754 5756 5758 5759 5761 5764 5767 5770 5772 5775 5777 5780
5733 5731 5730 5729 5729 5731 5733 5733 5733 5735 5735 5737 5740 5741 5741 5744 5744 5744 5745 5746 5747 5750 5752 5754 5754 5754 5753 5752 5752 5751 5749 5749 5748 5748 5747 5747 5748 5748 5747 5748 5748 5749 5750 5751 5753 5754 5755 5756 5758 5761 5763 5765 5768 5771
5723 5721 5719 5719 5719 5720 5721 5721 5723 5724 5724 5727 5731 5733 5734 5737 5739 5739 5739 5740 5741 5746 5747 5749 5751 5751 5751 5751 5750 5749 5749 5748 5747 5746 5746 5745 5745 5745 5745 5745 5745 5746 5746 5747 5746 5748 5748 5750 5751 5753 5755 5757 5758 5760
5714 5711 5709 5708 5709 5710 5709 5710 5712 5713 5712 5717 5721 5724 5727 5730 5733 5732 5733 5734 5736 5740 5744 5746 5748 5748 5749 5749 5748 5748 5748 5747 5746 5746 5745 5744 5743 5744 5743 5743 5744 5744 5744 5743 5743 5742 5741 5741 5741 5742 5744 5747 5750 5752
5704 5701 5700 5698 5698 5698 5699 5702 5703 5702 5703 5709 5714 5715 5719 5722 5725 5727 5730 5729 5731 5737 5740 5742 5744 5746 5746 5747 5747 5747 5746 5746 5745 5745 5744 5743 5743 5742 5742 5741 5741 5741 5740 5740 5739 5738 5737 5736 5735 5734 5736 5738 5740 5743
5694 5691 5690 5689 5688 5688 5689 5691 5693 5694 5696 5701 5706 5708 5711 5714 5717 5719 5722 5723 5726 5732 5736 5739 5741 5743 5743 5745 5745 5745 5745 5744 5744 5743 5743 5742 5741 5741 5740 5739 5739 5738 5737 5737 5736 5735 5733 5732 5730 5729 5729 5730 5731 5733
5683 5681 5680 5678 5677 5677 5679 5680 5682 5684 5687 5692 5697 5701 5703 5708 5710 5712 5716 5718 5721 5726 5732 5735 5736 5739 5740 5742 5742 5743 5743 5743 5743 5742 5741 5741 5740 5739 5738 5736 5735 5734 5733 5732 5731 5730 5729 5728 5727 5726 5724 5724 5723 5723
5672 5670 5669 5668 5667 5668 5669 5669 5671 5673 5679 5684 5690 5693 5697 5701 5702 5705 5708 5711 5716 5719 5725 5730 5731 5734 5737 5738 5740 5741 5741 5741 5740 5740 5739 5738 5737 5737 5736 5734 5733 5731 5729 5728 5727 5726 5724 5723 5722 5721 5720 5719 5718 5717
5662 5660 5659 5658 5658 5658 5660 5661 5662 5665 5670 5676 5682 5685 5688 5692 5696 5699 5702 5704 5709 5715 5719 5726 5728 5730 5733 5734 5735 5736 5737 5737 5737 5737 5736 5736 5735 5733 5732 5730 5729 5727 5725 5724 5723 5721 5719 5718 5716 5715 5714 5712 5711 5710
5652 5651 5651 5650 5650 5651 5652 5654 5657 5660 5663 5670 5676 5679 5682 5686 5689 5692 5695 5698 5704 5710 5714 5720 5723 5726 5728 5730 5731 5732 5733 5733 5733 5733 5732 5731 5731 5729 5727 5726 5724 5723 5721 5719 5717 5715 5713 5712 5710 5709 5707 5706 5704 5703
5643 5643 5643 5643 5643 5644 5645 5647 5651 5654 5659 5665 5671 5674 5677 5680 5683 5687 5692 5695 5700 5706 5710 5715 5718 5721 5723 5725 5727 5728 5729 5729 5729 5728 5727 5727 5726 5725 5723 5721 5720 5719 5716 5713 5711 5710 5708 5707 5705 5704 5702 5700 5698 5696
5636 5636 5636 5636 5637 5638 5641 5643 5647 5651 5655 5661 5666 5670 5672 5675 5679 5683 5686 5689 5693 5699 5703 5708 5712 5715 5718 5720 5722 5723 5724 5724 5724 5724 5723 5722 5721 5720 5719 5717 5714 5713 5711 5709 5707 5704 5702 5700 5699 5697 5695 5693 5690 5689
5629 5629 5629 5632 5634 5636 5639 5641 5643 5648 5653 5658 5661 5665 5668 5671 5674 5676 5679 5683 5686 5690 5696 5701 5705 5709 5712 5715 5716 5717 5718 5718 5719 5719 5718 5716 5715 5713 5712 5710 5709 5707 5705 5703 5700 5698 5696 5695 5692 5688 5685 5682 5680 5679
5623 5624 5626 5630 5632 5634 5636 5639 5642 5647 5650 5653 5656 5661 5664 5667 5668 5669 5671 5675 5679 5685 5690 5695 5699 5703 5707 5710 5711 5711 5712 5712 5713 5712 5710 5708 5707 5706 5705 5703 5702 5700 5698 5696 5693 5691 5688 5686 5682 5678 5674 5673 5670 5668
5621 5623 5626 5627 5628 5631 5633 5638 5641 5645 5649 5652 5656 5658 5660 5662 5663 5664 5668 5670 5675 5681 5686 5690 5695 5698 5701 5704 5706 5705 5706 5706 5705 5705 5703 5701 5699 5698 5697 5696 5695 5694 5692 5689 5686 5683 5680 5675 5671 5668 5665 5664 5660 5657
5617 5619 5621 5623 5625 5627 5632 5635 5639 5641 5644 5647 5651 5653 5656 5658 5660 5662 5665 5668 5673 5677 5681 5685 5689 5693 5696 5699 5699 5699 5700 5700 5699 5698 5697 5695 5693 5691 5690 5690 5688 5686 5684 5681 5678 5674 5671 5667 5662 5659 5655 5653 5651 5647
5614 5617 5620 5622 5625 5627 5629 5632 5635 5637 5640 5643 5646 5649 5651 5654 5656 5658 5662 5665 5668 5672 5676 5680 5683 5688 5690 5689 5691 5692 5694 5694 5693 5693 5691 5689 5687 5685 5684 5682 5681 5678 5676 5672 5669 5665 5662 5657 5653 5648 5645 5643 5641 5638
5612 5615 5617 5620 5623 5625 5627 5630 5632 5634 5637 5640 5642 5644 5647 5649 5652 5654 5658 5661 5664 5666 5671 5673 5678 5680 5680 5683 5685 5686 5687 5687 5687 5687 5685 5683 5681 5678 5676 5674 5672 5670 5667 5664 5660 5657 5653 5648 5643 5640 5638 5635 5632 5628
5610 5613 5616 5618 5620 5623 5625 5627 5630 5632 5634 5637 5639 5641 5643 5646 5648 5651 5654 5656 5658 5661 5665 5668 5669 5670 5673 5676 5678 5680 5680 5681 5680 5680 5678 5676 5673 5671 5668 5666 5663 5661 5660 5657 5653 5648 5644 5640 5636 5633 5630 5626 5623 5619
5608 5611 5613 5616 5618 5621 5623 5626 5628 5630 5632 5634 5636 5638 5641 5642 5644 5647 5649 5650 5654 5656 5658 5659 5661 5663 5668 5671 5673 5674 5673 5674 5673 5671 5669 5667 5664 5664 5661 5659 5658 5653 5652 5649 5644 5640 5637 5633 5630 5626 5623 5619 5615 5612
5606 5608 5611 5613 5615 5619 5623 5623 5626 5628 5630 5632 5633 5635 5637 5638 5640 5643 5644 5645 5646 5647 5650 5654 5658 5661 5663 5665 5666 5667 5668 5667 5665 5664 5663 5661 5659 5657 5655 5653 5651 5648 5645 5641 5637 5634 5631 5627 5624 5620 5617 5613 5610 5605
5604 5606 5608 5610 5614 5617 5619 5621 5623 5626 5627 5628 5630 5631 5633 5635 5637 5639 5640 5640 5640 5643 5647 5650 5652 5655 5658 5660 5661 5662 5661 5661 5659 5658 5657 5655 5654 5652 5650 5647 5645 5642 5638 5634 5631 5628 5624 5621 5618 5615 5611 5608 5604 5600
5602 5605 5607 5609 5612 5615 5617 5619 5621 5623 5625 5627 5628 5629 5630 5632 5634 5635 5636 5637 5639 5641 5643 5646 5649 5651 5654 5655 5656 5656 5656 5655 5654 5652 5650 5648 5647 5645 5643 5640 5638 5635 5631 5628 5625 5622 5619 5616 5613 5610 5607 5603 5599 5595
5600 5603 5606 5608 5611 5613 5616 5618 5620 5622 5624 5625 5626 5627 5627 5629 5629 5631 5633 5635 5638 5640 5642 5644 5646 5647 5649 5651 5651 5651 5651 5650 5649 5647 5645 5643 5641 5638 5636 5634 5632 5629 5625 5622 5619 5616 5614 5611 5608 5606 5602 5599 5596 5593
5599 5602 5605 5607 5610 5612 5615 5617 5620 5621 5623 5624 5625 5625 5627 5628 5629 5631 5633 5635 5637 5639 5640 5640 5641 5643 5645 5647 5647 5647 5646 5645 5643 5642 5640 5638 5636 5633 5631 5628 5625 5623 5620 5616 5614 5611 5609 5607 5604 5601 5598 5596 5594 5591
5599 5601 5604 5607 5609 5612 5614 5617 5619 5621 5623 5625 5626 5627 5628 5627 5627 5629 5630 5633 5634 5636 5639 5639 5640 5641 5642 5643 5642 5642 5641 5639 5637 5636 5634 5632 5630 5627 5625 5622 5620 5617 5614 5612 5609 5606 5604 5602 5600 5597 5595 5593 5591 5589
5599 5601 5604 5606 5608 5610 5613 5616 5619 5621 5623 5624 5624 5625 5627 5628 5628 5628 5630 5631 5633 5635 5637 5638 5638 5638 5639 5638 5637 5636 5635 5633 5632 5630 5628 5626 5624 5621 5618 5616 5614 5611 5609 5607 5604 5602 5601 5599 5597 5595 5593 5592 5590 5588
5599 5601 5603 5605 5607 5610 5613 5616 5618 5620 5621 5623 5623 5625 5626 5627 5627 5628 5629 5631 5632 5633 5634 5634 5634 5634 5633 5632 5632 5630 5629 5627 5626 5624 5622 5619 5618 5615 5612 5610 5608 5606 5604 5602 5600 5598 5597 5596 5594 5592 5591 5590 5589 5587
5598 5600 5603 5605 5606 5609 5612 5614 5616 5618 5619 5620 5621 5622 5623 5624 5625 5627 5627 5628 5629 5630 5630 5630 5630 5629 5627 5626 5625 5623 5622 5621 5619 5618 5615 5613 5611 5609 5607 5604 5603 5601 5600 5598 5596 5595 5594 5592 5591 5589 5589 5588 5587 5587
5599 5601 5602 5604 5607 5609 5610 5612 5613 5614 5615 5616 5617 5619 5620 5621 5622 5624 5624 5625 5625 5625 5625 5624 5624 5623 5621 5620 5618 5617 5616 5615 5613 5611 5610 5608 5606 5604 5601 5599 5598 5596 5595 5594 5593 5592 5591 5589 5588 5587 5586 5585 5585 5585
5598 5600 5602 5604 5606 5608 5609 5611 5612 5613 5614 5615 5616 5617 5618 5618 5618 5619 5620 5620 5620 5620 5619 5618 5617 5616 5614 5614 5613 5613 5611 5609 5608 5606 5604 5602 5600 5598 5596 5594 5593 5592 5591 5590 5589 5588 5587 5586 5585 5583 5583 5582 5582 5582